Home > Weather > Charleston > Past weeks

Flag for U.S.A. Weather for the Past 2 Weeks in Charleston, South Carolina, U.S.A.

Now
42 °F

Scattered clouds.


Feels Like: 36 °F
Forecast: 28 / 44 °F
Wind: 10 mph from East

Location: Charleston Air Force Base Reporting Station

Current Time: Feb 14, 2016 at 2:00:34 PM

Latest Report: Feb 14, 2016 at 12:56 PM


Visibility: 10 mi

Pressure: 30.44 "Hg

Humidity: 29%

Dew point: 12 °F

Location of CharlestonLocation

Historic Weather in Charleston — Graph

°F

Charleston Temperature Yesterday

Maximum temperature yesterday: 51 °F (at 3:56 PM)
Minimum temperature yesterday: 32 °F (at 6:56 AM)
Average temperature yesterday: 41 °F

High & Low Weather Summary for the Past Weeks

 TemperatureHumidityPressure
High77 °F (Feb 1, 2:56 PM)100% (Jan 31, 2:56 AM)30.50 "Hg (Jan 31, 2:56 AM)
Low27 °F (Feb 11, 6:56 AM)25% (Feb 10, 4:56 PM)29.70 "Hg (Feb 8, 4:56 PM)
Average49 °F65%30.09 "Hg
* Reported Jan 30 12:56 PM — Feb 14 12:56 PM, Charleston, Weather by CustomWeather, © 2016

Note: Actual official high and low records may vary slightly from our data, if they occured in-between our weather recording intervals... More about our weather records

Advertising

Charleston Weather History for the Previous 24 Hours

 ConditionsComfort  
Time TempWeatherWind HumidityBarometerVisibility
12:56 PM
Sun, Feb 14
42 °FScattered clouds.10 mph29%30.44 "Hg10 mi
11:56 AM39 °FScattered clouds.7 mph31%30.49 "Hg10 mi
10:56 AM37 °FScattered clouds.10 mph33%30.50 "Hg10 mi
9:56 AM35 °FScattered clouds.13 mph34%30.50 "Hg10 mi
8:56 AM32 °FPassing clouds.12 mph36%30.49 "Hg10 mi
7:56 AM29 °FPassing clouds.10 mph39%30.47 "Hg10 mi
6:56 AM28 °FClear.13 mph39%30.47 "Hg10 mi
5:56 AM29 °FClear.10 mph38%30.45 "Hg10 mi
4:56 AM29 °FClear.10 mph39%30.42 "Hg10 mi
3:56 AM30 °FClear.12 mph38%30.40 "HgN/A
2:56 AM31 °FClear.15 mph38%30.38 "Hg10 mi
1:56 AM32 °FClear.15 mph41%30.38 "Hg10 mi
12:56 AM34 °FClear.12 mph42%30.38 "Hg10 mi
11:56 PM
Sat, Feb 13
35 °FClear.8 mph44%30.37 "Hg10 mi
10:56 PM36 °FClear.10 mph48%30.37 "Hg10 mi
9:56 PM37 °FClear.8 mph46%30.37 "Hg10 mi
8:56 PM40 °FClear.10 mph29%30.36 "Hg10 mi
7:56 PM40 °FClear.8 mph35%30.33 "Hg10 mi
6:56 PM42 °FClear.6 mph36%30.32 "Hg10 mi
5:56 PM45 °FSunny.8 mph33%30.29 "Hg10 mi
4:56 PM49 °FSunny.8 mph28%30.26 "Hg10 mi
3:56 PM51 °FSunny.14 mph26%30.25 "Hg10 mi
2:56 PM50 °FPassing clouds.10 mph28%30.24 "Hg10 mi
Weather by CustomWeather, © 2016

See weather overviewHow to use our weather pages